STARLINK-32829, 63049

Orbit data source: Space-Track

STARLINK-32829, 63049 is a payload satellite owned by SpaceX/Seattle (US) in LEO that was launched on Tue, 18 Feb 2025 UTC via an FALCON 9 launch vehicle from the Air Force Eastern Test Range (AFETR). Payload-class satellites include a variety of spacecraft equipped with specific instruments for various scientific and technological missions. These include communications satellites like Starlink; space stations such as the ISS; scientific satellites like the Hubble; Earth observation satellites from companies like Planet Labs, Umbra, and HawkEye 360; GPS; miniature CubeSats for education and research; and military/defense satellites.

Loading next visibility...
Identifier
63049, 2025-034W
Orbit
LEO
Country
Flag of USUS
Related business
Manufacturer
SpaceX/Seattle
Mission
Operational Commercial Communications
Bus & Motor
STARLINK V2M, Unknown motor
Mass
730 kg wet, ~700 kg dry
Launch date (UTC)
2025-02-18 (1 year ago)
Launch vehicle
FALCON 9
Launch site
Air Force Eastern Test Range (AFETR)
Object type
Payload
Rocket body
Debris
Shape & HBR
Box + 2 Pan, 17.7 m
Radar Cross Section
33.884 m², Large (>1 m²)

Expand to show TLE details & history
Last TLE update: 15 hours ago

TLE from 15 hours ago
0 STARLINK-32829
1 63049U 25034W   26171.22898502  .00015471  00000-0  46790-3 0  9996
2 63049  53.1582 153.3751 0001306  71.0241 289.0903 15.34411648 74625
Epoch: 2026-06-20T05:29Z
TLE epoch observation values (Epoch: 2026-06-20T05:29:44.305Z)
Latitude
-0.00004°
Longitude
162.49386°
Altitude
463.278 km
Speed
7.636 km/s
True Right ascension
10h 13m 30s
True Declination
0° 00' 00"
Sunlit
Object was in daylight at epoch
Visualization orbit readout
Latitude
Unknown
Longitude
Unknown
Altitude
Unknown
Speed
Unknown
Apparent Right ascension
Unknown
Apparent Declination
Unknown
Sunlit
N/A
Visualization observer readout
Local Sidereal Time
07:16:57
Azimuth
Unknown
Elevation
Unknown
Doppler factor
Unknown
Orbital elements
Apogee altitude
463.819 km
Perigee altitude
462.032 km
Semi-major axis
6,841.063 km
Eccentricity
0.00013
Inclination
53.1582°
RAAN
153.3751°
Arg. of periapsis
71.0241°
True anomaly
289.07616°
Mean anomaly
289.0903°
Eccentric anomaly
289.08323°
Mean motion
3.83582 °/min
Orbital period
93.85 mins
BSTAR
0.0004679
Loading maneuver chart data...
Computing Atmospheric mass density...
Loading historical data...
Loading historical data...
Loading historical data...
Loading historical data...
Loading historical data...
Loading historical data...
Loading historical data...

Documentation

Showing up to 5 results
|